Orbital Elements at Epoch 2459200.5 (2020-Dec-17.0) TDB
Reference: JPL 14 (heliocentric ecliptic J2000)
Element | Value | Uncertainty (1-sigma) | Units |
e | .07587145062235975 | 5.4904e-08 | |
a | 2.196315184341271 | 9.0697e-09 | au |
q | 2.029677565281383 | 1.218e-07 | au |
i | 8.045963053072754 | 4.1247e-06 | deg |
node | 308.3963357042457 | 3.741e-05 | deg |
peri | 55.60273967787238 | 4.7264e-05 | deg |
M | 261.3001601586315 | 3.0793e-05 | deg |
tp | 2459526.452540415296 (2021-Nov-07.95254042) | 0.00010227 | TDB |
period | 1188.886575075515 3.25 | 7.3643e-06 2.016e-08 | d yr |
n | .3028043276349837 | 1.8757e-09 | deg/d |
Q | 2.362952803401158 | 9.7579e-09 | au |
|
| | Orbit Determination Parameters
Additional Information
|